Orbital Elements at Epoch 2459000.5 (2020-May-31.0) TDB
Reference: JPL 12 (heliocentric ecliptic J2000)
Element | Value | Uncertainty (1-sigma) | Units |
e | .4478516774554259 | 0.00051108 | |
a | 1.511336865293503 | 0.0011369 | au |
q | .8344821149715825 | 0.00014465 | au |
i | 3.916511811296046 | 0.0035383 | deg |
node | 141.4492625150441 | 0.021163 | deg |
peri | 173.3402215331588 | 0.0209 | deg |
M | 334.0894054732052 | 0.036709 | deg |
tp | 2459049.344449384924 (2020-Jul-18.84444939) | 0.014084 | TDB |
period | 678.6413858774426 1.86 | 0.76579 0.002097 | d yr |
n | .5304716268291561 | 0.0005986 | deg/d |
Q | 2.188191615615424 | 0.0016461 | au |
|
| | Orbit Determination Parameters
Additional Information
|